sat.trackr.live / text

‹ back to catalog

STARLINK-37204

NORAD 68329 · 2026-059J

PAYLOAD ACTIVE UNKNOWN

§ Identity

Operator
Country
US
Launch date
2026-03-22
Launch site
AFETR
Launch vehicle
Mass (kg)
RCS (m²)

Purposes: comms

External: N2YO · Heavens-Above · Gunter

§ Orbital elements

Epoch: 2026-05-24T00:00:40.179456Z

Period
92.94 min
Inclination
53.1611°
Eccentricity
0.0000993
Mean motion
15.49429226 rev/d
Perigee alt
417.7 km
Apogee alt
419.1 km
Semi-major
6,796.5 km
B*
-2.7588e-3
RAAN
354.3575°
Arg perigee
108.3490°
Mean anomaly
251.7628°
Rev number
976

§ Raw data

STARLINK-372041 68329U 26059J   26144.00046504 -.00151581  00000+0 -27588-2 0  99902 68329  53.1611 354.3575 0000993 108.3490 251.7628 15.49429226  9762

JSON: /api/v1/satellites/68329 · /tle

For live sub-satellite position, see the globe view (requires WebGL).

§ Visibility from observer

Set your observer location to see the next 7 days of passes ≥ 10°. The values pass through the URL so the page stays shareable.

No JS? Fill the form by hand. The geolocation button needs JavaScript.